{"data":{"norad_id":63722,"epoch":"2026-09-20T20:13:16.624992Z","epoch_age_seconds":123017,"freshness":"FRESH","line1":"1 63722U 25087AB  26263.84255353  .00019920  00000+0  59916-3 0  9999","line2":"2 63722  53.1614  32.0096 0000739  45.8433 314.2631 15.34397803 79096","mean_motion":15.34397803,"eccentricity":7.39e-5,"inclination_deg":53.1614,"raan_deg":32.0096,"arg_perigee_deg":45.8433,"mean_anomaly_deg":314.2631,"bstar":0.00059916,"rev_number":7909,"period_min":93.847892455566,"perigee_km":462.20423158558,"apogee_km":463.21530873821,"semimajor_km":6840.8467701619,"source":"CELESTRAK","updated_at":"2026-09-21T09:00:35.091909Z"}}